Weather History for KBTM - September, 2013

Change the Weather History Date:

Sunday, September 29, 2013

  Actual Average Record
Temperature  
Mean Temperature 47 °F 47 °F  
Max Temperature 56 °F 62 °F 84 °F (1963)
Min Temperature 38 °F 31 °F 10 °F (1985)
Degree Days  
Heating Degree Days 18 18  
Month to date heating degree days 285 374  
Since 1 July heating degree days 352 602  
Cooling Degree Days 0 0  
Month to date cooling degree days 8 0  
Year to date cooling degree days 104 79  
Moisture  
Dew Point 35 °F    
Average Humidity 68    
Maximum Humidity 92    
Minimum Humidity 43    
Precipitation  
Precipitation 0.11 in 0.03 in 0.84 in (1947)
Month to date precipitation 2.61 0.97  
Year to date precipitation 9.90 10.85  
Sea Level Pressure  
Sea Level Pressure 29.73 in    
Wind  
Wind Speed 10 mph (SSW)    
Max Wind Speed 28 mph    
Max Gust Speed 37 mph    
Visibility 10 miles    
Events Rain    
T = Trace of Precipitation, MM = Missing Value Source: NWS Daily Summary

Daily Weather History Graph

Daily Weather History Graph

Search for Another Location

Airport or City:

Trip Planner

Search our weather history database for the weather conditions in past years. The results will help you decide how hot, cold, wet, or windy it might be!

Date:

Astronomy

Sep. 29, 2013 Rise Set
Actual Time 7:26 AM MDT 7:13 PM MDT
Civil Twilight 6:56 AM MDT 7:42 PM MDT
Nautical Twilight 6:21 AM MDT 8:17 PM MDT
Astronomical Twilight 5:46 AM MDT 8:52 PM MDT
Moon 1:56 AM MDT 4:24 PM MDT
Length of Visible Light 12h 46m
Length of Day
11h 47m
Waning Crescent, 26% of the Moon is Illuminated
Sep 29
Waning Crescent
Oct 4
New
Oct 11
First Quarter
Oct 18
Full
Oct 26
Last Quarter

Hourly Weather History & Observations

Time (MDT) Temp. Windchill Dew Point Humidity Pressure Visibility Wind Dir Wind Speed Gust Speed Precip Events Conditions
12:53 AM 50.0 °F - 34.0 °F 54% 29.76 in 10.0 mi SSW 4.6 mph - N/A   Overcast
1:53 AM 51.1 °F - 32.0 °F 48% 29.72 in 10.0 mi SSW 12.7 mph - N/A   Scattered Clouds
2:53 AM 51.1 °F - 32.0 °F 48% 29.70 in 10.0 mi South 9.2 mph - N/A   Overcast
3:53 AM 50.0 °F - 33.1 °F 52% 29.68 in 10.0 mi South 10.4 mph - N/A   Overcast
4:53 AM 48.9 °F - 33.1 °F 54% 29.66 in 10.0 mi South 11.5 mph - N/A   Overcast
5:53 AM 48.9 °F - 33.1 °F 54% 29.63 in 10.0 mi SSE 15.0 mph - 0.00 in   Overcast
6:53 AM 50.0 °F - 33.1 °F 52% 29.62 in 10.0 mi South 9.2 mph - N/A   Overcast
7:53 AM 48.9 °F - 34.0 °F 56% 29.61 in 10.0 mi South 12.7 mph - N/A   Scattered Clouds
8:53 AM 54.0 °F - 33.1 °F 45% 29.58 in 10.0 mi SSW 28.8 mph 36.8 mph N/A   Partly Cloudy
9:53 AM 55.0 °F - 33.1 °F 43% 29.58 in 10.0 mi SW 16.1 mph 31.1 mph N/A   Scattered Clouds
10:34 AM 46.4 °F 38.1 °F 35.6 °F 66% 29.73 in 10.0 mi NW 24.2 mph 32.2 mph N/A   Overcast
10:53 AM 44.1 °F 36.5 °F 35.1 °F 71% 29.68 in 10.0 mi NNW 17.3 mph - N/A   Overcast
11:32 AM 41.0 °F 33.9 °F 35.6 °F 81% 29.77 in 8.0 mi NNE 12.7 mph 20.7 mph 0.01 in Rain Light Rain
11:53 AM 39.9 °F 31.8 °F 35.1 °F 83% 29.73 in 10.0 mi NNE 15.0 mph 21.9 mph 0.01 in Rain Light Rain
12:53 PM 39.0 °F 32.8 °F 36.0 °F 89% 29.77 in 4.0 mi North 9.2 mph - 0.07 in Rain Rain
1:24 PM 39.2 °F 33.0 °F 35.6 °F 87% 29.82 in 4.0 mi NNE 9.2 mph - 0.02 in Rain Light Rain
1:53 PM 39.9 °F 33.9 °F 35.1 °F 83% 29.77 in 10.0 mi NNE 9.2 mph - 0.03 in Rain Light Rain
2:38 PM 39.2 °F 32.5 °F 35.6 °F 87% 29.82 in 10.0 mi SSW 10.4 mph - 0.00 in Rain Light Rain
2:51 PM 39.2 °F 33.6 °F 35.6 °F 87% 29.82 in 10.0 mi SSW 8.1 mph - 0.00 in Rain Light Rain
2:53 PM 39.0 °F 32.8 °F 37.0 °F 93% 29.78 in 10.0 mi SSW 9.2 mph - 0.00 in Rain Light Rain
3:53 PM 41.0 °F - 36.0 °F 82% 29.77 in 10.0 mi Calm Calm - 0.00 in   Overcast
4:34 PM 42.8 °F 38.6 °F 37.4 °F 81% 29.81 in 10.0 mi NNE 6.9 mph - 0.00 in Rain Light Rain
4:53 PM 43.0 °F 38.2 °F 37.0 °F 80% 29.76 in 10.0 mi NNE 8.1 mph - 0.00 in   Overcast
5:00 PM 42.8 °F 39.3 °F 35.6 °F 76% 29.81 in 10.0 mi NNE 5.8 mph - N/A   Overcast
5:53 PM 43.0 °F 40.3 °F 35.1 °F 74% 29.75 in 10.0 mi NW 4.6 mph - N/A   Overcast
6:53 PM 43.0 °F - 36.0 °F 76% 29.77 in 10.0 mi Calm Calm - 0.00 in   Overcast
7:53 PM 43.0 °F 38.2 °F 35.1 °F 74% 29.79 in 10.0 mi SW 8.1 mph - N/A   Overcast
8:53 PM 44.1 °F 37.7 °F 33.1 °F 65% 29.76 in 10.0 mi WSW 12.7 mph 17.3 mph N/A   Clear
9:53 PM 43.0 °F 41.3 °F 35.1 °F 74% 29.74 in 10.0 mi East 3.5 mph - N/A   Mostly Cloudy
10:53 PM 43.0 °F 38.2 °F 36.0 °F 76% 29.76 in 10.0 mi SSE 8.1 mph - N/A   Overcast
11:53 PM 44.1 °F - 36.0 °F 73% 29.75 in 10.0 mi Calm Calm - 0.00 in Rain Light Rain